Regional Weather Roundup
Issued by NWS Boston, MA

Home | Current Version | Previous Version | Text Only | Print | Product List | Glossary On
Versions: 1 2 3 4 5 6 7 8 9 10 11 12 13 14 15 16 17 18 19 20 21 22 23 24 25 26 27 28 29 30 31 32 33 34 35 36 37 38 39 40 41 42 43 44 45 46 47 48 49 50
000
ASUS41 KBOX 271610
RWRBOX

REGIONAL WEATHER ROUNDUP
NATIONAL WEATHER SERVICE TAUNTON MA
1100 AM EST FRI FEB 27 2015

NOTE:  "FAIR" INDICATES FEW OR NO CLOUDS BELOW 12,000 FEET WITH NO
SIGNIFICANT WEATHER AND/OR OBSTRUCTIONS TO VISIBILITY.  THE FOLLOWING
OBSERVATION LOCATIONS DO NOT REPORT PRESENT WEATHER...PROVINCETOWN...
SMITHFIELD...BLOCK ISLAND...KEENE...AND OXFORD.

MAZALL-271700-
EASTERN MASSACHUSETTS

CITY           SKY/WX    TMP DP  RH WIND       PRES   REMARKS
BOSTON         MOSUNNY   20  -4  34 NW8G17    30.35S WCI  10
BEVERLY        SUNNY     19  -8  30 W8        30.33S WCI   9
LAWRENCE       SUNNY     18  -4  37 NW7       30.36R WCI   9
BEDFORD        SUNNY     19  -7  31 NW7       30.33F WCI  10
BLUE HILL        N/A     19  -5  34 NW9       30.28S WCI   8
NORWOOD        SUNNY     21  -4  33 NW7       30.34F WCI  12
MARSHFIELD     SUNNY     23   1  39 N7        30.35S WCI  15
PLYMOUTH       SUNNY     21   2  43 NW5       30.32S WCI  15
TAUNTON        SUNNY     25   2  37 N6        30.33S WCI  18
NEW BEDFORD    SUNNY     24   3  40 VRB6      30.33R WCI  17
$$

MAZALL-271700-
CAPE COD AND THE ISLANDS

CITY           SKY/WX    TMP DP  RH WIND       PRES   REMARKS
FALMOUTH       SUNNY     23   3  42 VRB5      30.32S WCI  17
HYANNIS        MOSUNNY   22   8  55 NW8G17    30.31R WCI  12
CHATHAM        MOSUNNY   24   8  50 NW9       30.33R WCI  14
PROVINCETOWN   SUNNY     21   9  58 NW12      30.33S WCI   9
NANTUCKET      PTSUNNY   25  12  58 N14       30.32R WCI  13
MARTHAS VNYRD  CLOUDY    22   1  40 N8        30.33R WCI  12
$$

MAZALL-271700-
CENTRAL AND WESTERN MASSACHUSETTS

CITY           SKY/WX    TMP DP  RH WIND       PRES   REMARKS
WORCESTER      SUNNY     17  -5  37 NW8       30.26S WCI   7
FITCHBURG      SUNNY     20  -5  33 NW9       30.33F WCI   9
ORANGE         MIX PCPN  17  -6  35 W6        30.33S WCI   9
SPRINGFIELD    SUNNY     17   1  48 VRB7      30.35F WCI   8
WESTFIELD      SUNNY     20   1  43 W6        30.35F WCI  12
NORTH ADAMS    SUNNY     14  -7  38 NW7       30.36S WCI   4
PITTSFIELD     SUNNY     16  -2  45 W8        30.28S WCI   5
$$

RIZALL-271700-
RHODE ISLAND

CITY           SKY/WX    TMP DP  RH WIND       PRES   REMARKS
PROVIDENCE     MOSUNNY   22   3  44 N7        30.34F WCI  13
NEWPORT        SUNNY     21   5  50 N8        30.33S WCI  11
BLOCK ISLAND   MOSUNNY   25   7  46 N6        30.33R WCI  18
SMITHFIELD     SUNNY     19   3  49 N8        30.30S WCI   9
WESTERLY       SUNNY     25   4  40 NW6       30.35R WCI  18
$$

CTZALL-271700-
CONNECTICUT

CITY           SKY/WX    TMP DP  RH WIND       PRES   REMARKS
BRADLEY INTL   MOSUNNY   21   2  43 N8        30.36F WCI  11
HARTFORD       SUNNY     20   3  48 VRB6      30.39S WCI  12
BRIDGEPORT     SUNNY     23   2  40 NW7       30.38S WCI  15
DANBURY        SUNNY     18  -6  34 N12       30.37S WCI   5
GROTON         SUNNY     23   6  48 NW5       30.35S WCI  17
NEW HAVEN      SUNNY     22   4  46 VRB6      30.38R WCI  14
CHESTER        FAIR      21   5  49 N9        30.34S WCI  11
MERIDEN        SUNNY     22   1  40 N6        30.37F WCI  14
WILLIMANTIC    SUNNY     22   4  46 NW8       30.35R WCI  12
OXFORD         SUNNY     18  -4  38 N12       30.34R WCI   5
$$

MEZ002-015-021-024-NHZ003-005-008-011-012-014-VTZ005-008-271700-
NORTHERN NEW ENGLAND

CITY           SKY/WX    TMP DP  RH WIND       PRES   REMARKS
PORTLAND ME    SUNNY     20  -6  31 VRB5      30.33S WCI  13
BANGOR ME      SUNNY     14  -7  38 W12       30.29S WCI   0
CONCORD NH     SUNNY     17  -8  32 NW8       30.33S WCI   7
MANCHESTER NH  SUNNY     18  -5  36 N12       30.33S WCI   5
NASHUA NH      SUNNY     19  -8  30 NW10      30.35S WCI   7
PORTSMOUTH NH  SUNNY     18  -6  34 SW6       30.33S WCI   9
JAFFREY NH     SUNNY     15  -8  35 CALM      30.27S
KEENE NH       SUNNY     16  -6  38 N7        30.34S WCI   6
BURLINGTON VT  SUNNY     14  -8  37 VRB3      30.39S
MT. WASHINGTON MOSUNNY   -8 -20  54 NW32        N/A  WCI -37
$$

NYZ052-076-271700-
EASTERN NEW YORK

CITY           SKY/WX    TMP DP  RH WIND       PRES   REMARKS
ALBANY         SUNNY     16  -4  41 NW9       30.42S WCI   4
NEW YORK CITY  PTSUNNY   22   6  50 N8        30.40S WCI  12
$$

ANZALL-271700-
MARINE OBSERVATIONS

STATION/POSITION TIME  TEMP    WIND        PRES    VSBY  WAVE
                       AIR SEA DIR/SP/G                  HT/PER
                 (UTC) (F)     (DEG/KT/KT) (MB)    (MI)  (FT/S)
BOSTON BUOY      1550   19 36  330/ 12/ 16 1027.8R         4/11
BUZZARDS BAY     1600          330/  6/  6 1028.0R
NANTUCKET SOUND  1550   24 33  340/ 12/ 14 1027.1R         1/ 6
MASS BAY-STELLWA 1504   18 36  310/ 12/ 14   N/A    1 3/4  4/11
ISLE OF SHOALS   1600   16     290/  7/  9 1026.8R
S OF BLOCK IS    1508      37                N/A           6/11
$$

......................KEY.........................
  SKY/WX - SKY CONDITION/PRESENT WEATHER
  TMP    - TEMPERATURE IN FAHRENHEIT
  DWPT   - DEWPOINT IN FAHRENHEIT
  RH     - RELATIVE HUMIDITY IN PERCENT
  WIND   - DIRECTION AND SPEED IN MPH
  PRES   - MEAN SEA LEVEL PRESSURE IN INCHES OF HG
  WCI    - WIND CHILL INDEX
  VSB    - VISIBILITY IN MILES
  HX     - HEAT INDEX
  TC     - TEMPERATURE IN CELSIUS
  VRB    - VARIABLE WIND DIRECTION
  N/A    - NOT AVAILABLE


USA.gov is the U.S. government's official web portal to all federal, state and local government web resources and services.